Cloud_Cover
100 100 100 100 87 11 8 60 99 97 57 100 99 100 100 100 100 100 100 100 100 100 100 47 5 4 5 4 4 0 0 0 0 0 0 0 4 23 0 0 10 100 100 100
73 100 100 100 88 21 5 12 53 82 67 54 40 100 100 100 100 100 100 100 100 100 100 43 97 0 0 0 0 0 2 5 5 20 21 96 90 14 2 0 0 1 29 100
100 100 100 58 46 5 28 8 97 68 66 5 7 62 100 86 100 100 100 100 100 70 58 71 0 55 19 34 5 6 5 5 48 5 99 81 66 5 0 0 0 0 0 15
82 80 100 100 93 5 8 5 5 5 5 5 8 48 24 6 10 49 88 38 100 98 78 70 7 49 24 81 83 8 5 1 5 0 10 42 0 5 6 0 0 0 0 0
81 69 100 100 69 8 7 5 5 5 5 21 63 95 12 5 9 5 23 92 90 100 100 100 92 53 99 15 5 0 2 5 3 1 4 2 0 5 0 0 0 0 0 3
87 100 98 17 5 15 66 14 4 5 35 99 100 88 46 5 4 4 100 97 100 84 100 100 100 51 5 1 4 5 5 5 5 0 0 0 0 0 0 0 0 5 14 1
100 100 52 11 5 11 5 58 50 12 32 100 82 28 79 18 55 53 63 52 58 100 100 57 16 5 5 5 5 5 26 23 2 0 0 0 0 0 0 50 48 5 28 54
100 100 84 99 42 5 5 9 5 61 23 94 84 76 93 48 28 80 96 99 100 100 11 24 5 5 5 5 5 5 3 0 0 0 0 0 4 0 58 68 18 42 19 94
94 98 100 91 7 5 5 5 5 4 5 19 24 68 92 36 92 100 100 100 99 40 5 5 2 0 0 0 0 0 0 0 0 0 0 5 5 5 99 98 84 100 100 71
99 83 28 5 5 22 5 5 46 5 58 5 100 100 100 82 100 73 56 92 57 4 0 0 0 0 0 0 0 0 0 0 0 8 24 5 4 8 77 90 100 100 100 100
98 100 100 25 76 17 5 8 5 66 57 36 39 100 77 68 64 22 8 4 1 4 0 0 0 0 0 0 0 0 0 0 0 93 73 33 94 51 64 100 84 100 100 100
78 100 100 88 63 5 12 92 5 23 78 100 100 100 97 93 16 5 5 0 0 0 4 0 0 0 0 0 0 0 0 0 68 81 4 6 29 100 96 100 100 100 100 100
90 87 87 60 5 82 15 5 6 5 13 100 100 35 100 87 5 5 4 0 0 5 5 0 0 0 0 0 0 1 0 7 1 3 1 27 100 51 88 100 100 100 100 100
99 54 18 38 23 18 41 6 100 36 17 96 100 61 100 10 5 3 2 0 1 5 0 0 0 4 0 0 0 0 0 2 0 0 2 16 84 90 100 100 100 100 100 100
94 84 5 42 92 100 6 12 25 34 5 88 14 67 53 4 5 3 5 0 0 1 2 0 0 0 0 0 0 0 0 0 0 0 5 27 98 58 27 100 100 100 100 100
100 75 49 100 100 100 100 46 52 23 11 96 96 51 98 17 2 5 3 0 0 0 4 2 0 1 0 0 0 0 0 0 0 4 5 14 19 99 100 100 100 100 100 100
100 100 54 100 100 100 100 67 51 68 5 15 22 26 42 5 1 4 0 0 0 0 0 27 8 97 0 0 0 0 0 0 2 5 5 8 64 6 100 94 93 100 13 79
100 98 100 100 100 100 100 94 75 24 51 63 5 66 12 5 4 5 0 0 0 0 1 100 30 2 0 0 0 2 0 5 3 5 12 37 5 46 13 98 91 98 11 34
100 100 73 100 100 100 100 88 68 50 5 5 14 9 52 5 5 3 0 0 0 3 92 52 84 89 41 0 4 2 2 5 29 5 5 5 5 5 7 12 5 14 19 45
79 100 97 100 100 100 14 96 100 100 89 64 81 39 5 5 5 5 0 0 0 5 0 62 100 86 18 22 2 0 100 5 2 5 5 5 11 5 8 5 5 18 100 89
59 100 100 100 100 95 24 100 100 100 100 100 100 36 5 5 5 2 0 0 6 100 100 100 100 1 96 2 0 0 71 1 0 3 5 5 5 12 5 6 5 5 36 65
33 99 100 90 100 26 57 100 100 100 100 100 100 11 5 5 5 0 0 0 93 100 100 100 71 7 100 51 12 95 96 33 0 0 5 5 5 40 16 5 5 5 5 5
99 73 100 100 100 100 96 100 100 100 100 94 48 8 5 5 5 0 0 69 96 100 100 100 2 96 98 88 10 79 100 61 3 5 5 5 5 5 62 5 5 5 5 26
88 100 100 100 100 100 99 100 100 100 100 36 18 26 5 5 5 0 23 100 100 100 100 67 2 25 87 100 5 15 100 2 1 5 5 6 5 5 43 9 6 5 5 29
100 100 100 99 99 90 94 88 72 100 11 14 19 24 5 5 4 0 91 100 100 93 29 12 5 4 82 34 1 24 72 1 5 5 5 60 6 5 51 82 100 72 64 100
100 100 45 100 100 96 29 100 11 5 31 67 57 10 5 5 4 32 87 94 97 100 100 32 5 31 15 31 7 13 2 4 51 18 6 5 5 7 100 100 92 92 100 78